[[{"header":{"parameterUnit":"m.s-1","parameterCategory":1,"la1":30.2991,"la2":30.254,"lo1":-89.0895,"lo2":-89.0444,"dy":0.0017,"dx":0.0017,"nx":28,"ny":28,"refTime":"2023-08-02T09:00:00:Z","depth":0,"parameterNumber":2,"parameterNumberName":"U-component_of_WINDS"},"data":[0,0,0,0,0,0,0,0,0,0,0,0,0,0,0,0,0,0,0,0,0,0,0,0,0,0,0,0,0,0,0,0,0,0,0,0,0,0,0,0,0,0,0,0,0,0,0,0,0,0,0,0,0,0,0,0,0,0,-0.3932,-0.3932,0,-0.3892,-0.3892,-0.3891,-0.3864,-0.3864,-0.3864,-0.3864,-0.3825,-0.3824,-0.3823,0,0,0,0,0,0,0,0,0,0,0,0,0,-0.3988,-0.3987,-0.3932,-0.3932,-0.3931,-0.3892,-0.3892,-0.3891,-0.3865,-0.3864,-0.3864,-0.3864,-0.3825,-0.3824,-0.3823,0,0,0,0,0,0,0,0,0,0,0,0,0,-0.3957,-0.3987,-0.3932,-0.3913,-0.3911,-0.3892,-0.3892,-0.3891,-0.3865,-0.3864,-0.3864,-0.3864,-0.3825,-0.3824,-0.3823,-0.3821,0,0,-0.3819,-0.3818,0,0,0,0,0,0,0,0,-0.3959,-0.3955,-0.3916,-0.3914,-0.3912,-0.3883,-0.3897,-0.3868,-0.3865,-0.3882,-0.3864,-0.3864,-0.3845,-0.3842,-0.3835,-0.3819,-0.3817,-0.3819,-0.3818,-0.3818,-0.3817,0,0,0,0,0,0,0,-0.3961,-0.3957,-0.3917,-0.3916,-0.3913,-0.3907,-0.3903,-0.3891,-0.3866,-0.3881,-0.3879,-0.3874,-0.3843,-0.3836,-0.3834,-0.3817,-0.3819,-0.3818,-0.3817,-0.3817,-0.3798,-0.3799,0,0,0,0,0,0,-0.3966,-0.3959,-0.3918,-0.3915,-0.3935,-0.3907,-0.3901,-0.3893,-0.3866,-0.3861,-0.3874,-0.3873,-0.3839,-0.3835,-0.3832,-0.3829,-0.3818,-0.3816,-0.3816,-0.3798,-0.3798,-0.3799,0,0,0,0,0,0,-0.3967,-0.3963,-0.3919,-0.3937,-0.3931,-0.3906,-0.3896,-0.3892,-0.3885,-0.3861,-0.3856,-0.3872,-0.3838,-0.3834,-0.3824,-0.3827,-0.3816,-0.3815,-0.3798,-0.3798,-0.3799,-0.3821,0,0,0,0,0,0,-0.3969,-0.3963,-0.3962,-0.3937,-0.393,-0.3911,-0.3897,-0.3891,-0.3883,-0.388,-0.3857,-0.3853,-0.3838,-0.3826,-0.3823,-0.3825,-0.3814,-0.3797,-0.3798,-0.3798,-0.382,-0.3822,-0.3824,0,0,0,0,0,-0.3971,-0.397,-0.3962,-0.3957,-0.3927,-0.3911,-0.3907,-0.3889,-0.3883,-0.3881,-0.3866,-0.3854,-0.3827,-0.3825,-0.3821,-0.3823,-0.3797,-0.3798,-0.3798,-0.3819,-0.3822,-0.3824,0,0,0,0,0,0,-0.3997,-0.3966,-0.3957,-0.3947,-0.3932,-0.3907,-0.3904,-0.3893,-0.3879,-0.3878,-0.3856,-0.3851,-0.3844,-0.3832,-0.3831,-0.382,-0.3811,-0.3811,-0.3828,-0.383,-0.3832,-0.3836,-0.3813,0,0,0,0,0,-0.4001,-0.399,-0.3964,-0.3958,-0.3951,-0.3929,-0.3922,-0.3909,-0.3892,-0.3886,-0.387,-0.3855,-0.3843,-0.3836,-0.3824,-0.3818,-0.3813,-0.3818,-0.382,-0.3822,-0.3822,-0.3819,-0.3821,-0.3801,-0.3801,-0.3801,0,0,-0.401,-0.3992,-0.3987,-0.3963,-0.395,-0.394,-0.3924,-0.3914,-0.3906,-0.3885,-0.3874,-0.3862,-0.3844,-0.3836,-0.3832,-0.3827,-0.3827,-0.3823,-0.3824,-0.3823,-0.382,-0.3822,-0.3824,-0.3801,-0.3801,-0.3801,0,0,-0.4022,-0.4007,-0.4,-0.3987,-0.3967,-0.3952,-0.3951,-0.3928,-0.3919,-0.3908,-0.3891,-0.3883,-0.3863,-0.3851,-0.3842,-0.385,-0.3838,-0.3847,-0.3858,-0.3855,-0.3857,-0.3858,-0.3861,-0.3863,-0.3847,-0.3847,-0.3847,0,-0.4036,-0.4019,-0.3999,-0.399,-0.398,-0.396,-0.3954,-0.3942,-0.3919,-0.3914,-0.3908,-0.3883,-0.3869,-0.3859,-0.3861,-0.3854,-0.3853,-0.3849,-0.3858,-0.3859,-0.386,-0.3863,-0.3864,-0.3848,-0.3848,-0.3848,-0.3848,0,-0.4038,-0.4027,-0.4024,-0.4002,-0.3992,-0.3985,-0.3964,-0.3957,-0.3945,-0.3932,-0.3922,-0.3904,-0.3889,-0.3885,-0.3874,-0.3874,-0.3871,-0.3862,-0.3852,-0.3863,-0.3866,-0.3867,-0.385,-0.3849,-0.3849,-0.3849,0,0,-0.4064,-0.4031,-0.4031,-0.4021,-0.3997,-0.3989,-0.3981,-0.3965,-0.396,-0.3945,-0.3938,-0.3922,-0.3914,-0.3904,-0.3891,-0.3888,-0.3897,-0.388,-0.3879,-0.3884,-0.3896,-0.3904,-0.3905,-0.3889,-0.3889,-0.3889,-0.3898,0,-0.4073,-0.4057,-0.4038,-0.4029,-0.4019,-0.3999,-0.3993,-0.3978,-0.3965,-0.3956,-0.3942,-0.3931,-0.392,-0.3914,-0.3911,-0.3896,-0.3899,-0.3895,-0.3883,-0.3883,-0.3889,-0.3907,-0.3914,-0.3924,-0.3899,-0.3899,-0.3899,0,-0.4081,-0.4066,-0.4056,-0.4033,-0.4029,-0.4023,-0.4007,-0.3998,-0.3981,-0.3972,-0.3962,-0.3948,-0.3939,-0.393,-0.3919,-0.3917,-0.3911,-0.3903,-0.3903,-0.3902,-0.3892,-0.3906,-0.3926,-0.3928,-0.39,-0.39,-0.39,0,-0.4102,-0.408,-0.4071,-0.4063,-0.4037,-0.4033,-0.4022,-0.4005,-0.3997,-0.3984,-0.3978,-0.3965,-0.3957,-0.3947,-0.393,-0.3925,-0.3921,-0.3911,-0.3914,-0.3915,-0.3915,-0.3915,-0.3934,-0.391,-0.391,-0.391,-0.391,0,-0.4114,-0.4108,-0.408,-0.4075,-0.4068,-0.4048,-0.4042,-0.403,-0.4015,-0.4007,-0.399,-0.3983,-0.3961,-0.3952,-0.3939,-0.3932,-0.3929,-0.3922,-0.3919,-0.3924,-0.3925,-0.392,-0.3919,-0.391,-0.391,-0.391,-0.391,0,-0.4137,-0.4117,-0.4106,-0.4082,-0.4076,-0.4073,-0.4052,-0.4047,-0.4033,-0.4024,-0.4021,-0.3999,-0.3988,-0.397,-0.3954,-0.3945,-0.3941,-0.3935,-0.3946,-0.3944,-0.3949,-0.3949,-0.3967,-0.3968,-0.3943,-0.3943,-0.3943,0,-0.4146,-0.4141,-0.4116,-0.4109,-0.4099,-0.4088,-0.408,-0.406,-0.4052,-0.4033,-0.403,-0.4017,-0.4006,-0.3989,-0.3973,-0.396,-0.3954,-0.3961,-0.3952,-0.3958,-0.3955,-0.3956,-0.3956,-0.3964,-0.3964,-0.3964,-0.3964,0,-0.4164,-0.4155,-0.4143,-0.4128,-0.4118,-0.4105,-0.4092,-0.4088,-0.4065,-0.4057,-0.4045,-0.4036,-0.4019,-0.4007,-0.3993,-0.3982,-0.397,-0.3967,-0.3968,-0.3973,-0.398,-0.3977,-0.3953,-0.3967,-0.3967,-0.3967,-0.3967,-0.3966,-0.4181,-0.4176,-0.4158,-0.4145,-0.4133,-0.4121,-0.4115,-0.41,-0.4089,-0.4073,-0.4062,-0.4051,-0.4036,-0.4015,-0.4005,-0.3997,-0.3991,-0.3991,-0.3992,-0.3992,-0.3994,-0.3981,-0.3994,-0.3994,-0.3994,-0.3993,-0.3993,0,-0.4199,-0.4186,-0.4175,-0.4156,-0.4147,-0.4135,-0.412,-0.4113,-0.4103,-0.4089,-0.4078,-0.4065,-0.4053,-0.4036,-0.4023,-0.402,-0.4014,-0.4017,-0.4018,-0.4016,-0.4,-0.4001,-0.4022,-0.4022,-0.4022,-0.4022,-0.4022,-0.4022,-0.4208,-0.4199,-0.4187,-0.4173,-0.416,-0.4149,-0.4141,-0.413,-0.4119,-0.4105,-0.4094,-0.4083,-0.4068,-0.4054,-0.4043,-0.4038,-0.4035,-0.404,-0.4034,-0.4019,-0.4017,-0.4014,-0.4015,-0.4039,-0.4039,-0.4051,-0.4051,-0.4051]},{"header":{"parameterUnit":"m.s-1","parameterCategory":1,"la1":30.2991,"la2":30.254,"lo1":-89.0895,"lo2":-89.0444,"dy":0.0017,"dx":0.0017,"nx":28,"ny":28,"refTime":"2023-08-02T09:00:00:Z","depth":0,"parameterNumber":3,"parameterNumberName":"V-component_of_WINDS"},"data":[0,0,0,0,0,0,0,0,0,0,0,0,0,0,0,0,0,0,0,0,0,0,0,0,0,0,0,0,0,0,0,0,0,0,0,0,0,0,0,0,0,0,0,0,0,0,0,0,0,0,0,0,0,0,0,0,0,0,4.7062,4.7061,0,4.7033,4.7032,4.7032,4.6987,4.6986,4.6985,4.6984,4.6954,4.6954,4.6954,0,0,0,0,0,0,0,0,0,0,0,0,0,4.7077,4.7077,4.7062,4.7061,4.7061,4.7033,4.7032,4.7032,4.6987,4.6986,4.6985,4.6984,4.6954,4.6954,4.6954,0,0,0,0,0,0,0,0,0,0,0,0,0,4.7062,4.7077,4.7062,4.7035,4.7032,4.7033,4.7032,4.7032,4.6987,4.6986,4.6984,4.6983,4.6954,4.6954,4.6954,4.6979,0,0,4.6954,4.6954,0,0,0,0,0,0,0,0,4.7063,4.7061,4.7039,4.7037,4.7034,4.7012,4.7027,4.7014,4.6987,4.7004,4.6984,4.6983,4.6974,4.6973,4.697,4.6977,4.6976,4.6954,4.6954,4.6954,4.6954,0,0,0,0,0,0,0,4.7064,4.7062,4.705,4.7039,4.7036,4.7024,4.7021,4.7024,4.6997,4.7002,4.6999,4.6996,4.6973,4.697,4.6969,4.6975,4.6954,4.6954,4.6954,4.6954,4.7001,4.7002,0,0,0,0,0,0,4.7069,4.7063,4.7051,4.7049,4.7045,4.7025,4.7021,4.702,4.6996,4.6992,4.6997,4.6994,4.6971,4.6969,4.6968,4.6994,4.6954,4.6954,4.6954,4.7,4.7001,4.7003,0,0,0,0,0,0,4.7069,4.7068,4.7052,4.7055,4.7053,4.7026,4.7026,4.702,4.7018,4.6993,4.6987,4.7,4.697,4.6968,4.6976,4.6992,4.6954,4.6954,4.6998,4.7,4.7002,4.7048,0,0,0,0,0,0,4.707,4.7069,4.7078,4.7056,4.7053,4.7061,4.7027,4.7021,4.7018,4.7013,4.6993,4.6989,4.6969,4.6976,4.6976,4.6992,4.6954,4.6997,4.6999,4.7001,4.7045,4.7051,4.7056,0,0,0,0,0,4.7071,4.7092,4.7078,4.7077,4.7063,4.7062,4.706,4.7037,4.7019,4.7028,4.7012,4.699,4.6991,4.6978,4.6977,4.6993,4.6995,4.6998,4.7001,4.7042,4.705,4.7056,0,0,0,0,0,0,4.7116,4.7088,4.7073,4.7088,4.7078,4.7055,4.7065,4.7046,4.704,4.7036,4.7007,4.7003,4.7015,4.7005,4.6991,4.7015,4.699,4.6993,4.7021,4.7028,4.7034,4.7036,4.6954,0,0,0,0,0,4.7128,4.7129,4.7105,4.712,4.7116,4.7092,4.709,4.7073,4.7061,4.7057,4.7041,4.7031,4.7029,4.7028,4.7025,4.7043,4.7038,4.7054,4.706,4.7065,4.7067,4.7076,4.7082,4.7012,4.7012,4.7012,0,0,4.7151,4.7137,4.7139,4.7129,4.7119,4.7121,4.7088,4.7092,4.7093,4.7057,4.7064,4.7053,4.7039,4.7052,4.7058,4.7044,4.7086,4.7068,4.7072,4.7072,4.7079,4.7086,4.7092,4.7014,4.7014,4.7013,0,0,4.7196,4.7185,4.7196,4.7188,4.7173,4.7157,4.716,4.714,4.7131,4.7137,4.711,4.7111,4.7109,4.71,4.7095,4.7137,4.7116,4.7137,4.7167,4.7176,4.7182,4.7186,4.72,4.7206,4.714,4.714,4.714,0,4.7227,4.723,4.7205,4.721,4.7206,4.7174,4.7185,4.7178,4.7163,4.7161,4.7147,4.7143,4.7131,4.7142,4.7152,4.715,4.7152,4.7139,4.7183,4.7187,4.7191,4.7205,4.721,4.7143,4.7142,4.7142,4.7142,0,4.7269,4.7271,4.7282,4.7269,4.7266,4.7274,4.725,4.7251,4.7234,4.7219,4.7226,4.7212,4.7205,4.7206,4.719,4.7215,4.7207,4.7188,4.7162,4.7201,4.7213,4.7218,4.7146,4.7145,4.7145,4.7144,0,0,4.734,4.7313,4.7317,4.7311,4.7293,4.7294,4.7301,4.7295,4.7295,4.7287,4.7291,4.729,4.7273,4.7268,4.725,4.7258,4.7291,4.7238,4.7237,4.7247,4.7317,4.733,4.7337,4.7278,4.7279,4.7279,4.7318,0,4.738,4.739,4.7368,4.7384,4.7385,4.7355,4.7361,4.7351,4.7338,4.7337,4.7322,4.7321,4.7299,4.7295,4.7302,4.7286,4.7304,4.7283,4.7281,4.7281,4.7284,4.7343,4.7357,4.7394,4.7322,4.7323,4.7324,0,4.7428,4.7422,4.7438,4.7419,4.7419,4.7424,4.7416,4.7416,4.7404,4.7394,4.7388,4.7368,4.7373,4.7349,4.7356,4.7342,4.734,4.7332,4.7333,4.7331,4.7304,4.7342,4.7405,4.741,4.7331,4.733,4.733,0,4.7477,4.7473,4.7482,4.7477,4.7456,4.7461,4.7452,4.7438,4.7436,4.7429,4.7427,4.7422,4.7418,4.7414,4.7393,4.7377,4.7402,4.7376,4.7393,4.7393,4.7398,4.7398,4.7461,4.7399,4.7399,4.7399,4.7399,0,4.7524,4.7534,4.7503,4.7509,4.752,4.7495,4.7506,4.7494,4.7483,4.7485,4.7459,4.7462,4.7434,4.7434,4.7417,4.7425,4.7424,4.7415,4.741,4.7417,4.7418,4.7414,4.7411,4.74,4.74,4.74,4.7399,0,4.758,4.756,4.7567,4.7547,4.7542,4.7551,4.7533,4.7537,4.7522,4.7526,4.7525,4.7502,4.75,4.7478,4.7472,4.7461,4.7475,4.7466,4.7479,4.7475,4.7493,4.7492,4.7556,4.7563,4.7497,4.7498,4.7498,0,4.7611,4.7618,4.7598,4.7598,4.7591,4.7591,4.7588,4.7564,4.7562,4.7549,4.7555,4.7551,4.7546,4.7545,4.7527,4.7522,4.7512,4.7535,4.7511,4.7518,4.7512,4.7511,4.7511,4.754,4.7541,4.7542,4.7542,0,4.7667,4.7657,4.7654,4.7648,4.7645,4.764,4.7632,4.7633,4.7607,4.7606,4.7604,4.7601,4.7594,4.7591,4.7582,4.7573,4.7553,4.755,4.7553,4.756,4.7567,4.7562,4.7492,4.7548,4.7548,4.7547,4.7547,4.7547,4.771,4.7716,4.7702,4.77,4.7692,4.7686,4.7688,4.7674,4.7672,4.7665,4.7651,4.7651,4.7639,4.7626,4.7618,4.7618,4.7606,4.7611,4.7612,4.7614,4.7617,4.7568,4.7616,4.7616,4.7616,4.7616,4.7616,0,4.7764,4.7755,4.7753,4.7743,4.7742,4.7724,4.7714,4.7714,4.7715,4.7705,4.7701,4.7699,4.7695,4.7678,4.7672,4.7675,4.7666,4.7674,4.7673,4.7672,4.7628,4.7625,4.7682,4.7682,4.7682,4.7682,4.7682,4.7682,4.7792,4.78,4.7788,4.7791,4.7781,4.7781,4.7778,4.7772,4.7764,4.7762,4.7759,4.7748,4.7735,4.7728,4.7724,4.7719,4.7718,4.773,4.7721,4.7681,4.7675,4.7669,4.7666,4.773,4.773,4.7764,4.7765,4.7765]}]]